Time,TemperatureF,DewpointF,PressureIn,WindDirection,WindDirectionDegrees,WindSpeedMPH,WindSpeedGustMPH,Humidity,HourlyPrecipIn,Conditions,Clouds,dailyrainin,SoftwareType,DateUTC
2013-07-13 00:01:00,67.1,65.9,30.12,SE,135,0.0,2.0,96,0.01,,,-99.99,WeatherLink 5.7,2013-07-13 04:01:00,
2013-07-13 00:11:00,67.0,65.8,30.12,SE,135,0.0,2.0,96,0.01,,,-99.99,WeatherLink 5.7,2013-07-13 04:11:00,
2013-07-13 00:21:00,67.0,65.8,30.12,SE,135,0.0,2.0,96,0.01,,,-99.99,WeatherLink 5.7,2013-07-13 04:21:00,
2013-07-13 00:31:00,66.8,65.6,30.12,ESE,112,1.0,2.0,96,0.02,,,-99.99,WeatherLink 5.7,2013-07-13 04:31:00,
2013-07-13 00:41:00,66.7,65.8,30.12,ESE,112,0.0,3.0,97,0.02,,,-99.99,WeatherLink 5.7,2013-07-13 04:41:00,
2013-07-13 00:51:00,66.5,65.3,30.13,ENE,67,0.0,3.0,96,0.01,,,-99.99,WeatherLink 5.7,2013-07-13 04:51:00,
2013-07-13 01:01:00,66.4,65.2,30.14,ENE,67,0.0,3.0,96,0.01,,,-99.99,WeatherLink 5.7,2013-07-13 05:01:00,
2013-07-13 01:11:00,66.2,65.0,30.14,ESE,112,1.0,3.0,96,0.01,,,-99.99,WeatherLink 5.7,2013-07-13 05:11:00,
2013-07-13 01:21:00,66.1,64.9,30.13,ESE,112,1.0,3.0,96,0.01,,,-99.99,WeatherLink 5.7,2013-07-13 05:21:00,
2013-07-13 01:31:00,66.0,64.8,30.13,ESE,112,0.0,2.0,96,0.01,,,-99.99,WeatherLink 5.7,2013-07-13 05:31:00,
2013-07-13 01:41:00,65.9,65.0,30.13,ESE,112,1.0,3.0,97,0.01,,,-99.99,WeatherLink 5.7,2013-07-13 05:41:00,
2013-07-13 01:51:00,65.9,65.0,30.14,ESE,112,1.0,3.0,97,0.01,,,-99.99,WeatherLink 5.7,2013-07-13 05:51:00,
2013-07-13 02:01:00,65.9,65.0,30.13,ESE,112,0.0,3.0,97,0.01,,,-99.99,WeatherLink 5.7,2013-07-13 06:01:00,
2013-07-13 02:11:00,65.8,64.9,30.14,ESE,112,1.0,3.0,97,0.01,,,-99.99,WeatherLink 5.7,2013-07-13 06:11:00,
2013-07-13 02:21:00,65.8,64.9,30.14,ESE,112,0.0,2.0,97,0.01,,,-99.99,WeatherLink 5.7,2013-07-13 06:21:00,
2013-07-13 02:31:00,65.7,64.8,30.14,ESE,112,0.0,2.0,97,0.00,,,-99.99,WeatherLink 5.7,2013-07-13 06:31:00,
2013-07-13 02:41:00,65.7,64.8,30.13,ESE,112,0.0,2.0,97,0.00,,,-99.99,WeatherLink 5.7,2013-07-13 06:41:00,
2013-07-13 02:51:00,65.7,64.8,30.14,ESE,112,0.0,2.0,97,0.00,,,-99.99,WeatherLink 5.7,2013-07-13 06:51:00,
2013-07-13 03:01:00,65.7,64.8,30.14,ESE,112,0.0,3.0,97,0.00,,,-99.99,WeatherLink 5.7,2013-07-13 07:01:00,
2013-07-13 03:11:00,65.6,64.7,30.13,ESE,112,0.0,2.0,97,0.00,,,-99.99,WeatherLink 5.7,2013-07-13 07:11:00,
2013-07-13 03:21:00,65.6,64.7,30.14,ESE,112,0.0,2.0,97,0.00,,,-99.99,WeatherLink 5.7,2013-07-13 07:21:00,
2013-07-13 03:31:00,65.6,64.7,30.14,ESE,112,0.0,1.0,97,0.00,,,-99.99,WeatherLink 5.7,2013-07-13 07:31:00,
2013-07-13 03:41:00,65.6,64.7,30.14,South,180,0.0,2.0,97,0.00,,,-99.99,WeatherLink 5.7,2013-07-13 07:41:00,
2013-07-13 03:51:00,65.6,64.7,30.14,SSE,157,0.0,2.0,97,0.00,,,-99.99,WeatherLink 5.7,2013-07-13 07:51:00,
2013-07-13 04:01:00,65.5,64.6,30.15,SSE,157,0.0,1.0,97,0.00,,,-99.99,WeatherLink 5.7,2013-07-13 08:01:00,
2013-07-13 04:12:00,65.5,64.6,30.14,SSE,157,0.0,1.0,97,0.00,,,-99.99,WeatherLink 5.7,2013-07-13 08:12:00,
2013-07-13 04:21:00,65.5,64.6,30.16,SSE,157,0.0,1.0,97,0.00,,,-99.99,WeatherLink 5.7,2013-07-13 08:21:00,
2013-07-13 04:31:00,65.5,64.6,30.15,SSE,157,0.0,1.0,97,0.00,,,-99.99,WeatherLink 5.7,2013-07-13 08:31:00,
2013-07-13 04:41:00,65.5,64.9,30.15,SSE,157,0.0,1.0,98,0.00,,,-99.99,WeatherLink 5.7,2013-07-13 08:41:00,
2013-07-13 04:51:00,65.6,64.7,30.16,North,-999,0.0,1.0,97,0.00,,,-99.99,WeatherLink 5.7,2013-07-13 08:51:00,
2013-07-13 05:01:00,65.6,64.7,30.16,SSE,157,0.0,1.0,97,0.00,,,-99.99,WeatherLink 5.7,2013-07-13 09:01:00,
2013-07-13 05:11:00,65.7,64.8,30.17,North,-999,0.0,0.0,97,0.00,,,-99.99,WeatherLink 5.7,2013-07-13 09:11:00,
2013-07-13 05:21:00,65.7,65.1,30.17,North,-999,0.0,0.0,98,0.00,,,-99.99,WeatherLink 5.7,2013-07-13 09:21:00,
2013-07-13 05:31:00,65.8,65.2,30.18,North,-999,0.0,1.0,98,0.00,,,-99.99,WeatherLink 5.7,2013-07-13 09:31:00,
2013-07-13 05:41:00,65.8,65.2,30.18,North,-999,0.0,0.0,98,0.00,,,-99.99,WeatherLink 5.7,2013-07-13 09:41:00,
2013-07-13 05:51:00,65.8,65.2,30.18,SSE,157,0.0,1.0,98,0.00,,,-99.99,WeatherLink 5.7,2013-07-13 09:51:00,
2013-07-13 06:01:00,65.9,65.3,30.19,SSE,157,0.0,1.0,98,0.00,,,-99.99,WeatherLink 5.7,2013-07-13 10:01:00,
2013-07-13 06:11:00,65.9,65.0,30.18,SSE,157,0.0,2.0,97,0.00,,,-99.99,WeatherLink 5.7,2013-07-13 10:11:00,
2013-07-13 06:21:00,65.9,65.0,30.19,SSW,202,0.0,1.0,97,0.00,,,-99.99,WeatherLink 5.7,2013-07-13 10:21:00,
2013-07-13 06:31:00,66.0,65.4,30.20,North,-999,0.0,0.0,98,0.00,,,-99.99,WeatherLink 5.7,2013-07-13 10:31:00,
2013-07-13 06:41:00,66.0,65.1,30.19,North,-999,0.0,0.0,97,0.00,,,-99.99,WeatherLink 5.7,2013-07-13 10:41:00,
2013-07-13 06:51:00,66.0,65.4,30.20,SSW,202,0.0,1.0,98,0.00,,,-99.99,WeatherLink 5.7,2013-07-13 10:51:00,
2013-07-13 07:01:00,66.2,65.9,30.19,North,-999,0.0,0.0,99,0.00,,,-99.99,WeatherLink 5.7,2013-07-13 11:01:00,
2013-07-13 07:11:00,66.2,65.9,30.21,North,-999,0.0,0.0,99,0.00,,,-99.99,WeatherLink 5.7,2013-07-13 11:11:00,
2013-07-13 07:21:00,66.3,66.0,30.20,North,-999,0.0,0.0,99,0.00,,,-99.99,WeatherLink 5.7,2013-07-13 11:21:00,
2013-07-13 07:31:00,66.4,66.4,30.20,SSW,202,0.0,1.0,100,0.00,,,-99.99,WeatherLink 5.7,2013-07-13 11:31:00,
2013-07-13 07:41:00,66.6,66.6,30.21,SSW,202,0.0,1.0,100,0.00,,,-99.99,WeatherLink 5.7,2013-07-13 11:41:00,
2013-07-13 07:51:00,66.7,66.7,30.21,North,-999,0.0,0.0,100,0.00,,,-99.99,WeatherLink 5.7,2013-07-13 11:51:00,
2013-07-13 08:01:00,66.8,66.8,30.22,North,-999,0.0,0.0,100,0.00,,,-99.99,WeatherLink 5.7,2013-07-13 12:01:00,
2013-07-13 08:11:00,66.9,66.9,30.22,SSW,202,0.0,1.0,100,0.01,,,-99.99,WeatherLink 5.7,2013-07-13 12:11:00,
2013-07-13 08:21:00,67.0,67.0,30.24,North,-999,0.0,0.0,100,0.01,,,-99.99,WeatherLink 5.7,2013-07-13 12:21:00,
2013-07-13 08:31:00,67.0,67.0,30.24,SSW,202,0.0,1.0,100,0.04,,,-99.99,WeatherLink 5.7,2013-07-13 12:31:00,
2013-07-13 08:41:00,67.0,67.0,30.24,North,-999,0.0,0.0,100,0.04,,,-99.99,WeatherLink 5.7,2013-07-13 12:41:00,
2013-07-13 08:51:00,67.1,67.1,30.24,SSW,202,0.0,2.0,100,0.05,,,-99.99,WeatherLink 5.7,2013-07-13 12:51:00,
2013-07-13 09:01:00,67.2,67.2,30.24,North,-999,0.0,0.0,100,0.05,,,-99.99,WeatherLink 5.7,2013-07-13 13:01:00,
2013-07-13 09:11:00,67.5,67.5,30.25,North,-999,0.0,0.0,100,0.04,,,-99.99,WeatherLink 5.7,2013-07-13 13:11:00,
2013-07-13 09:21:00,67.7,67.7,30.25,North,-999,0.0,0.0,100,0.04,,,-99.99,WeatherLink 5.7,2013-07-13 13:21:00,
2013-07-13 09:31:00,67.8,67.8,30.25,North,-999,0.0,0.0,100,0.01,,,-99.99,WeatherLink 5.7,2013-07-13 13:31:00,
2013-07-13 09:41:00,68.0,68.0,30.25,North,-999,0.0,0.0,100,0.01,,,-99.99,WeatherLink 5.7,2013-07-13 13:41:00,
2013-07-13 09:51:00,68.0,68.0,30.25,North,-999,0.0,0.0,100,0.01,,,-99.99,WeatherLink 5.7,2013-07-13 13:51:00,
2013-07-13 10:01:00,68.2,68.2,30.26,North,-999,0.0,0.0,100,0.01,,,-99.99,WeatherLink 5.7,2013-07-13 14:01:00,
2013-07-13 10:11:00,68.4,68.4,30.26,SSW,202,0.0,1.0,100,0.01,,,-99.99,WeatherLink 5.7,2013-07-13 14:11:00,
2013-07-13 10:21:00,68.6,68.6,30.26,North,-999,0.0,0.0,100,0.01,,,-99.99,WeatherLink 5.7,2013-07-13 14:21:00,
2013-07-13 10:31:00,68.6,68.6,30.26,North,-999,0.0,0.0,100,0.01,,,-99.99,WeatherLink 5.7,2013-07-13 14:31:00,
2013-07-13 10:41:00,68.7,68.7,30.27,North,-999,0.0,1.0,100,0.01,,,-99.99,WeatherLink 5.7,2013-07-13 14:41:00,
2013-07-13 10:51:00,68.8,68.8,30.26,North,-999,0.0,0.0,100,0.00,,,-99.99,WeatherLink 5.7,2013-07-13 14:51:00,
2013-07-13 11:01:00,68.8,68.8,30.25,SSW,202,0.0,1.0,100,0.00,,,-99.99,WeatherLink 5.7,2013-07-13 15:01:00,
2013-07-13 11:11:00,68.9,68.9,30.25,SSW,202,0.0,1.0,100,0.00,,,-99.99,WeatherLink 5.7,2013-07-13 15:11:00,
2013-07-13 11:21:00,69.0,69.0,30.26,North,-999,0.0,0.0,100,0.00,,,-99.99,WeatherLink 5.7,2013-07-13 15:21:00,
2013-07-13 11:31:00,69.1,69.1,30.26,North,-999,0.0,0.0,100,0.00,,,-99.99,WeatherLink 5.7,2013-07-13 15:31:00,
2013-07-13 11:41:00,69.3,69.3,30.26,North,-999,0.0,1.0,100,0.00,,,-99.99,WeatherLink 5.7,2013-07-13 15:41:00,
2013-07-13 11:51:00,69.4,69.4,30.26,North,-999,0.0,0.0,100,0.00,,,-99.99,WeatherLink 5.7,2013-07-13 15:51:00,
2013-07-13 12:01:00,69.7,69.7,30.27,North,-999,0.0,0.0,100,0.00,,,-99.99,WeatherLink 5.7,2013-07-13 16:01:00,
2013-07-13 12:11:00,69.9,69.9,30.27,North,-999,0.0,0.0,100,0.00,,,-99.99,WeatherLink 5.7,2013-07-13 16:11:00,
2013-07-13 12:21:00,70.0,70.0,30.27,North,-999,0.0,0.0,100,0.00,,,-99.99,WeatherLink 5.7,2013-07-13 16:21:00,
2013-07-13 12:31:00,70.3,70.3,30.27,North,-999,0.0,0.0,100,0.00,,,-99.99,WeatherLink 5.7,2013-07-13 16:31:00,
2013-07-13 12:41:00,70.6,70.6,30.27,North,-999,0.0,1.0,100,0.00,,,-99.99,WeatherLink 5.7,2013-07-13 16:41:00,
2013-07-13 12:51:00,70.7,-99.9,30.27,North,-999,0.0,0.0,-999,0.00,,,-99.99,WeatherLink 5.7,2013-07-13 16:51:00,
2013-07-13 13:01:00,71.0,-99.9,30.27,North,-999,0.0,0.0,-999,0.00,,,-99.99,WeatherLink 5.7,2013-07-13 17:01:00,
2013-07-13 13:11:00,71.2,-99.9,30.27,North,-999,0.0,1.0,-999,0.00,,,-99.99,WeatherLink 5.7,2013-07-13 17:11:00,
2013-07-13 13:21:00,71.6,71.6,30.27,North,-999,0.0,0.0,100,0.00,,,-99.99,WeatherLink 5.7,2013-07-13 17:21:00,
2013-07-13 13:31:00,72.0,72.0,30.27,North,-999,0.0,0.0,100,0.00,,,-99.99,WeatherLink 5.7,2013-07-13 17:31:00,
2013-07-13 13:41:00,72.3,72.3,30.27,North,-999,0.0,0.0,100,0.00,,,-99.99,WeatherLink 5.7,2013-07-13 17:41:00,
2013-07-13 13:51:00,72.6,72.6,30.26,North,-999,0.0,0.0,100,0.00,,,-99.99,WeatherLink 5.7,2013-07-13 17:51:00,
2013-07-13 14:01:00,73.0,73.0,30.27,North,-999,0.0,0.0,100,0.00,,,-99.99,WeatherLink 5.7,2013-07-13 18:01:00,
2013-07-13 14:11:00,73.3,73.3,30.27,North,-999,0.0,1.0,100,0.00,,,-99.99,WeatherLink 5.7,2013-07-13 18:11:00,
2013-07-13 14:21:00,73.2,73.2,30.26,North,-999,0.0,0.0,100,0.00,,,-99.99,WeatherLink 5.7,2013-07-13 18:21:00,
2013-07-13 14:31:00,73.1,73.1,30.26,North,-999,0.0,1.0,100,0.00,,,-99.99,WeatherLink 5.7,2013-07-13 18:31:00,
2013-07-13 14:41:00,73.4,73.4,30.26,North,-999,0.0,0.0,100,0.00,,,-99.99,WeatherLink 5.7,2013-07-13 18:41:00,
2013-07-13 14:51:00,74.1,74.1,30.26,NE,45,0.0,1.0,100,0.00,,,-99.99,WeatherLink 5.7,2013-07-13 18:51:00,
2013-07-13 15:01:00,74.6,74.6,30.26,North,-999,0.0,0.0,100,0.00,,,-99.99,WeatherLink 5.7,2013-07-13 19:01:00,
2013-07-13 15:11:00,74.5,73.9,30.26,North,-999,0.0,0.0,98,0.00,,,-99.99,WeatherLink 5.7,2013-07-13 19:11:00,
2013-07-13 15:21:00,74.5,73.6,30.26,North,-999,0.0,0.0,97,0.00,,,-99.99,WeatherLink 5.7,2013-07-13 19:21:00,
2013-07-13 15:31:00,74.8,73.9,30.26,North,-999,0.0,0.0,97,0.00,,,-99.99,WeatherLink 5.7,2013-07-13 19:31:00,
2013-07-13 15:41:00,75.4,74.2,30.25,NE,45,0.0,1.0,96,0.00,,,-99.99,WeatherLink 5.7,2013-07-13 19:41:00,
2013-07-13 15:51:00,76.1,74.6,30.26,NE,45,0.0,2.0,95,0.00,,,-99.99,WeatherLink 5.7,2013-07-13 19:51:00,
2013-07-13 16:01:00,75.8,73.9,30.26,NE,45,0.0,1.0,94,0.00,,,-99.99,WeatherLink 5.7,2013-07-13 20:01:00,
2013-07-13 16:11:00,75.6,73.8,30.25,NE,45,0.0,1.0,94,0.01,,,-99.99,WeatherLink 5.7,2013-07-13 20:11:00,
2013-07-13 16:21:00,75.8,73.6,30.25,NE,45,0.0,2.0,93,0.01,,,-99.99,WeatherLink 5.7,2013-07-13 20:21:00,
2013-07-13 16:31:00,76.2,74.0,30.26,North,-999,0.0,0.0,93,0.01,,,-99.99,WeatherLink 5.7,2013-07-13 20:31:00,
2013-07-13 16:40:00,76.1,73.9,30.26,North,-999,0.0,0.0,93,0.01,,,-99.99,WeatherLink 5.7,2013-07-13 20:40:00,
2013-07-13 16:51:00,75.8,73.6,30.26,NE,45,0.0,2.0,93,0.01,,,-99.99,WeatherLink 5.7,2013-07-13 20:51:00,
2013-07-13 17:01:00,75.5,73.3,30.27,NE,45,0.0,1.0,93,0.01,,,-99.99,WeatherLink 5.7,2013-07-13 21:01:00,
2013-07-13 17:11:00,75.4,73.6,30.27,North,-999,0.0,0.0,94,0.00,,,-99.99,WeatherLink 5.7,2013-07-13 21:11:00,
2013-07-13 17:21:00,75.2,73.4,30.26,NE,45,0.0,1.0,94,0.00,,,-99.99,WeatherLink 5.7,2013-07-13 21:21:00,
2013-07-13 17:31:00,75.1,72.9,30.27,NE,45,0.0,2.0,93,0.00,,,-99.99,WeatherLink 5.7,2013-07-13 21:31:00,
2013-07-13 17:41:00,75.0,72.8,30.26,NE,45,0.0,2.0,93,0.00,,,-99.99,WeatherLink 5.7,2013-07-13 21:41:00,
2013-07-13 17:51:00,75.0,72.5,30.27,NE,45,0.0,2.0,92,0.00,,,-99.99,WeatherLink 5.7,2013-07-13 21:51:00,
2013-07-13 18:00:00,75.1,72.6,30.28,NE,45,0.0,2.0,92,0.00,,,-99.99,WeatherLink 5.7,2013-07-13 22:00:00,
2013-07-13 18:11:00,75.2,72.7,30.28,NE,45,0.0,2.0,92,0.00,,,-99.99,WeatherLink 5.7,2013-07-13 22:11:00,
2013-07-13 18:21:00,75.1,72.9,30.29,NE,45,0.0,2.0,93,0.00,,,-99.99,WeatherLink 5.7,2013-07-13 22:21:00,
2013-07-13 18:30:00,75.1,72.9,30.28,NE,45,0.0,1.0,93,0.00,,,-99.99,WeatherLink 5.7,2013-07-13 22:30:00,
2013-07-13 18:41:00,75.0,72.8,30.28,NE,45,0.0,1.0,93,0.00,,,-99.99,WeatherLink 5.7,2013-07-13 22:41:00,
2013-07-13 18:51:00,75.0,72.8,30.28,NE,45,0.0,2.0,93,0.00,,,-99.99,WeatherLink 5.7,2013-07-13 22:51:00,
2013-07-13 19:01:00,75.1,72.6,30.28,NE,45,0.0,2.0,92,0.00,,,-99.99,WeatherLink 5.7,2013-07-13 23:01:00,
2013-07-13 19:11:00,75.0,72.8,30.29,NE,45,0.0,1.0,93,0.00,,,-99.99,WeatherLink 5.7,2013-07-13 23:11:00,
2013-07-13 19:21:00,74.9,72.4,30.29,NE,45,1.0,2.0,92,0.00,,,-99.99,WeatherLink 5.7,2013-07-13 23:21:00,
2013-07-13 19:31:00,74.8,72.3,30.29,NE,45,0.0,2.0,92,0.00,,,-99.99,WeatherLink 5.7,2013-07-13 23:31:00,
2013-07-13 19:41:00,74.6,72.1,30.30,NE,45,0.0,1.0,92,0.00,,,-99.99,WeatherLink 5.7,2013-07-13 23:41:00,
2013-07-13 19:50:00,74.5,72.0,30.31,North,-999,0.0,0.0,92,0.00,,,-99.99,WeatherLink 5.7,2013-07-13 23:50:00,
2013-07-13 20:01:00,74.3,72.1,30.30,NE,45,0.0,1.0,93,0.00,,,-99.99,WeatherLink 5.7,2013-07-14 00:01:00,
2013-07-13 20:11:00,74.3,72.1,30.30,North,-999,0.0,1.0,93,0.00,,,-99.99,WeatherLink 5.7,2013-07-14 00:11:00,
2013-07-13 20:21:00,74.3,72.5,30.30,NE,45,0.0,1.0,94,0.00,,,-99.99,WeatherLink 5.7,2013-07-14 00:21:00,
2013-07-13 20:31:00,74.2,72.4,30.30,North,-999,0.0,0.0,94,0.00,,,-99.99,WeatherLink 5.7,2013-07-14 00:31:00,
2013-07-13 20:41:00,74.1,72.3,30.30,North,-999,0.0,0.0,94,0.00,,,-99.99,WeatherLink 5.7,2013-07-14 00:41:00,
2013-07-13 20:50:00,74.0,72.5,30.30,North,-999,0.0,1.0,95,0.00,,,-99.99,WeatherLink 5.7,2013-07-14 00:50:00,
2013-07-13 21:01:00,74.0,72.5,30.30,North,-999,0.0,0.0,95,0.00,,,-99.99,WeatherLink 5.7,2013-07-14 01:01:00,
2013-07-13 21:11:00,74.0,72.5,30.31,North,-999,0.0,0.0,95,0.00,,,-99.99,WeatherLink 5.7,2013-07-14 01:11:00,
2013-07-13 21:20:00,73.9,72.7,30.31,North,-999,0.0,0.0,96,0.00,,,-99.99,WeatherLink 5.7,2013-07-14 01:20:00,
2013-07-13 21:31:00,73.9,72.4,30.32,North,-999,0.0,0.0,95,0.00,,,-99.99,WeatherLink 5.7,2013-07-14 01:31:00,
2013-07-13 21:41:00,73.9,72.7,30.31,North,-999,0.0,0.0,96,0.00,,,-99.99,WeatherLink 5.7,2013-07-14 01:41:00,
2013-07-13 21:50:00,73.8,72.6,30.32,North,-999,0.0,0.0,96,0.00,,,-99.99,WeatherLink 5.7,2013-07-14 01:50:00,
2013-07-13 22:01:00,73.7,72.5,30.32,North,-999,0.0,0.0,96,0.00,,,-99.99,WeatherLink 5.7,2013-07-14 02:01:00,
2013-07-13 22:11:00,73.7,72.5,30.33,North,-999,0.0,0.0,96,0.00,,,-99.99,WeatherLink 5.7,2013-07-14 02:11:00,
2013-07-13 22:21:00,73.7,72.5,30.32,North,-999,0.0,0.0,96,0.00,,,-99.99,WeatherLink 5.7,2013-07-14 02:21:00,
2013-07-13 22:31:00,73.6,72.4,30.32,North,-999,0.0,0.0,96,0.00,,,-99.99,WeatherLink 5.7,2013-07-14 02:31:00,
2013-07-13 22:41:00,73.5,72.3,30.32,North,-999,0.0,0.0,96,0.00,,,-99.99,WeatherLink 5.7,2013-07-14 02:41:00,
2013-07-13 22:51:00,73.5,72.3,30.31,North,-999,0.0,0.0,96,0.00,,,-99.99,WeatherLink 5.7,2013-07-14 02:51:00,
2013-07-13 23:01:00,73.4,72.2,30.32,North,-999,0.0,0.0,96,0.00,,,-99.99,WeatherLink 5.7,2013-07-14 03:01:00,
2013-07-13 23:11:00,73.4,72.2,30.32,North,-999,0.0,0.0,96,0.00,,,-99.99,WeatherLink 5.7,2013-07-14 03:11:00,
2013-07-13 23:21:00,73.3,72.4,30.33,North,-999,0.0,0.0,97,0.00,,,-99.99,WeatherLink 5.7,2013-07-14 03:21:00,
2013-07-13 23:31:00,73.2,72.3,30.32,North,-999,0.0,0.0,97,0.00,,,-99.99,WeatherLink 5.7,2013-07-14 03:31:00,
2013-07-13 23:41:00,73.0,72.1,30.32,North,-999,0.0,0.0,97,0.00,,,-99.99,WeatherLink 5.7,2013-07-14 03:41:00,
2013-07-13 23:51:00,72.9,72.0,30.33,North,-999,0.0,0.0,97,0.00,,,-99.99,WeatherLink 5.7,2013-07-14 03:51:00,